Dewpoint
26 28 36 36 39 37 40 41 43 42 41 39 38 37 36 35 34 34 34 34 34 33 33 33 33 33 32
25 27 33 33 35 35 36 38 39 40 38 38 35 34 33 32 33 33 33 32 31 31 31 32 32 31 31
24 26 27 31 32 32 34 35 35 37 37 36 34 32 32 31 31 31 31 30 31 32 32 31 31 31 30
24 25 27 27 31 30 32 32 33 34 35 33 33 32 31 31 30 30 29 29 29 29 30 30 29 28 28
25 25 26 28 30 30 31 31 30 28 29 29 29 28 27 29 27 25 25 27 27 30 29 28 27 26 26
26 24 25 27 29 28 29 30 30 27 25 25 24 24 23 23 26 25 23 24 26 29 26 25 25 26 26
27 25 24 25 28 27 28 29 27 26 24 22 22 21 23 22 25 25 22 24 28 27 25 25 25 24 25
29 27 25 24 26 26 27 28 25 25 24 21 22 20 20 22 24 25 23 26 29 26 26 26 25 24 23
31 29 28 27 27 27 26 25 23 22 23 21 22 19 19 19 20 25 25 25 29 27 27 26 23 21 20
33 32 32 30 29 27 26 26 27 25 24 21 22 23 21 21 19 22 24 25 28 27 26 22 20 18 17
31 31 31 30 30 32 32 31 28 27 26 26 23 23 18 19 20 20 20 19 16 15 16 17 15 16 17
30 30 30 30 30 31 32 32 28 28 28 26 22 20 18 18 14 19 17 16 16 15 15 15 16 15 15
29 28 28 28 27 25 24 24 24 26 25 22 21 21 18 13 10 16 13 16 15 14 16 15 13 14 14
28 27 27 27 25 22 22 21 20 18 18 20 21 19 17 16 15 13 16 10 14 15 14 15 15 16 16
26 26 25 25 24 23 21 18 16 17 15 16 16 16 14 12 10 13 13 15 16 15 15 15 15 16 16
26 25 24 23 22 21 19 16 13 15 14 15 15 14 14 15 15 12 14 14 14 15 16 15 14 15 14
25 25 24 23 22 20 18 16 15 15 15 16 15 14 12 11 14 19 16 16 15 15 16 16 13 13 14
Wind_Speed
7 7 12 14 11 9 8 10 11 14 13 12 11 10 8 7 7 6 5 4 3 3 2 2 3 4 5
8 9 9 11 13 13 10 9 11 13 14 13 11 10 9 7 6 6 5 3 2 1 1 1 2 4 5
10 5 3 11 11 7 10 9 9 12 15 13 11 10 9 8 7 5 4 2 1 1 1 1 1 3 5
10 12 10 6 10 16 13 4 10 8 11 9 9 9 9 8 6 3 2 2 2 3 3 2 1 3 5
13 10 16 17 26 15 16 12 6 6 9 7 7 6 5 8 7 6 4 4 5 5 3 3 2 4 6
15 19 21 23 21 21 16 16 12 9 10 11 10 11 9 7 10 8 6 8 9 8 6 4 5 7 9
23 20 19 24 23 22 18 20 11 9 11 12 10 11 11 10 13 12 9 9 11 8 6 6 7 9 11
18 15 15 23 26 22 20 13 7 7 10 10 8 10 8 10 14 13 10 10 12 10 9 9 10 11 11
15 18 19 26 23 20 20 20 10 6 9 7 6 7 5 7 10 13 12 13 16 13 12 12 10 11 7
16 18 21 24 28 22 22 22 12 7 8 12 7 6 5 5 8 8 7 10 13 13 10 9 12 9 7
18 16 16 19 18 14 16 19 19 4 9 9 8 9 4 3 3 5 4 3 2 2 5 9 11 9 9
20 18 19 16 14 14 14 11 13 11 16 12 7 10 8 5 4 3 3 3 3 5 4 7 7 8 11
21 16 15 15 17 15 14 14 13 12 15 7 10 8 7 6 5 4 2 2 3 5 3 3 9 6 9
19 16 16 18 17 14 13 14 12 8 7 8 9 10 7 5 6 6 7 4 2 3 6 7 7 7 8
19 20 19 18 15 12 13 12 11 13 10 6 6 6 5 7 7 10 10 8 8 8 5 8 9 8 9
18 19 20 19 17 13 14 12 13 12 13 9 9 5 2 4 12 12 6 8 7 8 7 7 11 9 9
18 18 18 17 20 16 14 13 11 11 10 11 12 8 9 9 2 15 11 7 6 7 9 10 11 11 10
Wind_Direction
203 197 180 175 169 169 164 153 152 157 159 166 163 162 161 158 154 147 140 129 116 101 70 49 31 8 359
178 183 191 182 172 167 167 160 155 164 176 168 169 167 169 167 163 154 144 139 117 93 38 44 3 341 336
165 163 139 169 163 157 164 161 168 174 183 179 176 178 178 173 173 168 153 151 141 126 80 12 3 334 328
156 166 164 158 163 169 175 164 171 170 160 170 186 187 190 184 184 178 183 206 216 235 215 157 3 328 322
157 165 169 173 190 181 175 165 176 163 162 176 173 186 209 200 188 197 212 235 238 207 195 229 251 282 299
180 187 189 185 179 178 167 169 188 197 176 198 184 201 210 209 201 209 229 237 227 200 213 230 264 283 292
190 188 176 183 172 173 182 184 181 168 174 198 191 213 210 215 215 216 228 239 210 210 225 250 275 295 296
188 179 173 171 178 179 176 158 108 147 174 192 178 206 204 214 215 218 228 235 203 223 244 262 277 294 296
159 161 165 170 166 150 166 171 174 173 195 162 181 172 187 212 217 221 226 236 210 229 251 263 282 291 313
163 169 169 176 174 175 168 174 167 177 198 176 157 143 213 212 211 216 225 235 228 246 262 277 290 300 290
154 157 159 167 173 157 163 174 174 158 174 152 167 176 195 152 191 197 195 201 211 268 292 290 289 283 290
159 161 162 161 154 156 166 178 186 165 167 168 161 169 167 169 192 177 199 209 247 269 288 295 306 313 296
170 166 162 144 128 124 119 119 108 123 148 155 152 152 164 174 165 173 185 247 214 276 251 273 299 298 306
163 146 137 141 144 143 132 129 125 121 101 132 147 155 166 179 185 216 205 245 193 205 287 291 286 273 274
154 153 151 150 148 141 142 144 152 159 158 132 120 128 135 162 220 234 237 234 244 260 254 276 276 264 262
158 156 156 154 149 147 149 162 164 172 172 166 149 123 78 259 220 241 229 241 242 244 231 247 274 268 258
156 156 154 150 153 160 162 167 174 173 175 169 173 170 192 229 280 216 223 222 239 254 242 231 260 276 279